Home > Weather > Limassol > Past weeks

Flag for Cyprus Past Weather in Limassol, Cyprus — Yesterday and Last 2 Weeks

Now
73 °F

Passing clouds.


Feels Like: 76 °F
Forecast: 54 / 77 °F
Wind: 15 mph from West

Location: Akrotiri

Current Time: May 26, 2016 at 1:51:59 PM

Latest Report: May 26, 2016 at 12:50 PM


Visibility: N/A

Pressure: 29.71 "Hg

Humidity: 61%

Dew Point: 59 °F

Location of LimassolLocation

Past Weather in Limassol — Graph

°F

Limassol Temperature Yesterday

Maximum temperature yesterday: 75 °F (at 1:50 PM)
Minimum temperature yesterday: 64 °F (at 5:50 AM)
Average temperature yesterday: 70 °F

High & Low Weather Summary for the Past Weeks

 TemperatureHumidityPressure
High97 °F (May 15, 12:50 PM)100% (May 21, 2:50 AM)29.98 "Hg (May 21, 2:50 AM)
Low61 °F (May 12, 5:50 AM)23% (May 15, 12:50 PM)29.71 "Hg (May 26, 4:50 AM)
Average72 °F68%29.87 "Hg
* Reported May 11 12:50 PM — May 26 12:50 PM, Limassol, Weather by CustomWeather, © 2016

Note: Actual official high and low records may vary slightly from our data, if they occured in-between our weather recording intervals... More about our weather records

Advertising

Limassol Weather History for the Previous 24 Hours

Scroll right to see more
 ConditionsComfort  
Time TempWeatherWind HumidityBarometerVisibility
12:50 PM
Thu, May 26
73 °FPassing clouds.15 mph61%29.71 "HgN/A
11:50 AM75 °FPassing clouds.12 mph61%29.71 "HgN/A
10:50 AM75 °FPassing clouds.8 mph61%29.71 "HgN/A
9:50 AM73 °FPassing clouds.3 mph65%29.71 "HgN/A
8:50 AM72 °FPassing clouds.2 mph69%29.71 "HgN/A
7:50 AM70 °FPassing clouds.2 mph60%29.74 "HgN/A
6:50 AM66 °FPassing clouds.1 mph68%29.71 "HgN/A
5:50 AM64 °FPassing clouds.2 mph73%29.71 "HgN/A
4:50 AM64 °FPassing clouds.3 mph78%29.71 "HgN/A
3:50 AM66 °FPassing clouds.3 mph78%29.74 "HgN/A
2:50 AM66 °FPassing clouds.3 mph78%29.74 "HgN/A
1:50 AM66 °FPassing clouds.3 mph83%29.77 "HgN/A
12:50 AM66 °FClear.2 mph83%29.77 "Hg10 mi
11:50 PM
Wed, May 25
68 °FClear.3 mph78%29.80 "Hg10 mi
10:50 PM68 °FClear.7 mph83%29.80 "Hg10 mi
9:50 PM68 °FPassing clouds.5 mph78%29.83 "HgN/A
8:50 PM70 °FPassing clouds.7 mph78%29.83 "HgN/A
7:50 PM70 °FPassing clouds.12 mph78%29.83 "HgN/A
6:50 PM72 °FPassing clouds.15 mph73%29.83 "HgN/A
5:50 PM72 °FPassing clouds.17 mph78%29.83 "HgN/A
4:50 PM73 °FPassing clouds.17 mph69%29.86 "HgN/A
3:50 PM73 °FPassing clouds.18 mph69%29.89 "HgN/A
2:50 PM75 °FPassing clouds.20 mph61%29.89 "HgN/A
1:50 PM75 °FPassing clouds.17 mph65%29.89 "HgN/A
Weather by CustomWeather, © 2016

See weather overviewHow to use our weather pages